Wind_Speed
50 68 77 69 72 62 62 58 54 46 47 45 46 40 40 36 34 34 33 31 33 32 28 27 26 25 26 26 27 28 28 27
42 51 67 78 74 75 69 64 57 56 54 48 50 50 45 42 37 42 39 36 35 35 32 31 29 29 29 30 31 31 31 32
48 40 51 74 81 77 77 73 68 61 54 54 55 55 51 48 45 47 47 39 40 39 37 36 35 34 34 34 34 33 34 35
54 46 50 58 72 83 83 77 73 68 59 61 61 63 58 53 51 52 55 47 45 43 41 38 40 39 37 37 38 37 37 38
61 48 44 45 55 75 87 85 81 79 63 66 72 67 65 61 57 55 58 51 47 47 42 43 44 42 42 42 41 40 40 41
64 61 67 58 59 65 80 89 83 83 72 74 78 72 74 69 62 54 57 57 49 51 46 49 49 47 46 44 43 44 45 46
66 69 72 59 54 62 69 81 91 82 84 80 83 77 77 75 67 61 62 65 56 55 53 51 52 52 49 49 47 49 51 52
79 74 72 65 63 56 59 67 82 87 88 87 84 85 82 83 77 70 65 66 62 61 56 58 56 56 55 53 54 54 56 57
86 76 75 73 41 56 60 66 74 85 87 91 94 93 91 87 83 74 70 71 65 64 64 63 61 62 61 59 59 60 61 61
85 81 78 45 65 61 58 65 71 75 81 91 96 96 93 90 86 82 74 77 70 69 68 66 67 64 64 63 64 66 66 66
79 74 64 64 61 64 63 56 63 72 77 85 95 98 100 96 93 88 85 75 77 81 74 72 68 71 69 67 67 70 72 69
72 69 61 54 65 64 64 55 67 71 73 81 87 100 97 97 96 94 90 87 81 93 84 69 76 76 73 72 71 76 76 75
70 68 64 67 68 67 67 53 56 60 68 74 82 86 90 99 102 100 96 92 90 98 87 78 79 79 80 78 76 78 79 79
74 68 67 67 60 48 58 55 54 59 57 62 72 80 88 99 102 102 100 94 92 102 92 85 84 82 82 81 79 80 82 83
71 63 65 66 68 69 68 58 54 58 66 72 60 66 79 88 97 99 100 100 99 97 95 89 86 85 85 83 83 82 84 86
71 67 70 67 68 64 62 57 57 55 59 61 60 58 65 73 84 94 99 102 105 98 95 91 88 89 87 87 87 86 87 89
63 65 63 62 63 59 57 54 53 47 47 51 51 52 57 64 74 85 92 97 99 98 97 94 91 90 90 88 86 86 88 88
61 60 52 52 55 52 57 55 47 42 44 39 30 21 24 34 46 66 82 89 92 96 98 95 92 90 87 86 84 83 83 82
61 55 44 43 44 52 45 38 39 40 37 29 27 22 11 28 41 43 51 74 85 91 94 94 92 89 87 86 85 84 83 81
Wind_Direction
247 239 236 236 240 237 234 231 232 233 235 233 241 231 236 235 236 237 240 243 246 248 249 252 259 264 266 273 283 290 296 302
276 252 240 237 235 237 235 234 234 231 233 234 237 241 241 238 238 244 238 239 245 249 252 253 256 261 265 274 281 289 295 299
276 284 250 238 234 238 239 234 233 230 232 237 239 242 239 243 243 245 248 244 248 251 254 260 263 264 269 276 280 287 292 295
275 269 265 248 239 236 237 237 235 235 229 236 239 239 241 239 238 242 246 245 247 252 255 259 264 267 270 272 277 283 288 292
272 273 272 265 252 240 236 233 234 234 226 230 237 240 239 240 240 237 247 247 249 254 255 258 262 264 267 271 277 283 286 288
269 271 267 254 255 248 238 234 233 234 230 232 235 236 240 239 239 241 244 249 247 250 252 256 260 262 265 270 276 280 282 284
262 268 269 261 255 254 245 238 235 232 232 230 235 236 239 243 240 236 239 246 246 248 252 253 258 262 265 269 272 275 278 281
264 266 268 262 257 252 254 244 238 234 229 232 232 237 236 240 240 239 238 244 245 248 248 253 255 259 264 267 271 274 276 280
265 264 263 257 260 260 251 246 239 237 233 230 233 232 236 237 243 239 241 243 245 248 250 251 254 257 260 263 266 270 273 278
259 256 258 270 257 254 250 242 240 237 237 232 232 235 236 239 241 244 241 241 246 246 250 253 255 257 261 264 266 269 272 275
252 253 258 252 260 258 252 248 245 240 237 236 233 232 235 235 237 240 244 240 247 248 244 249 255 258 260 262 265 268 271 273
245 249 259 253 249 247 252 249 243 243 240 237 237 237 235 237 238 238 238 243 241 248 248 246 252 256 259 261 265 268 271 275
237 245 244 242 242 248 253 255 250 245 244 242 237 238 237 236 239 239 240 240 241 246 249 248 250 255 259 261 265 269 274 277
233 237 241 249 250 243 248 257 252 242 244 245 243 239 237 238 237 239 240 242 242 245 248 248 252 255 258 263 267 271 275 277
226 229 227 229 243 244 249 253 253 246 243 246 247 246 241 240 242 241 240 243 244 245 247 250 250 255 259 262 265 268 272 276
221 221 233 238 244 248 252 252 253 248 247 249 249 247 245 242 243 241 241 239 243 246 248 249 251 253 256 258 261 264 267 271
222 228 240 241 245 250 254 255 256 252 249 248 252 255 254 250 248 247 244 244 244 245 247 250 251 253 255 258 261 264 267 270
222 233 243 246 248 257 261 260 264 251 252 255 255 252 271 275 268 256 249 245 244 244 245 247 249 253 256 258 261 264 268 271
221 229 249 251 250 248 267 260 256 244 242 238 205 187 200 271 273 266 261 251 248 247 247 248 249 252 255 258 262 265 268 271
Height
10857 10857 10865 10878 10881 10903 10902 10908 10914 10926 10928 10931 10932 10941 10941 10946 10947 10949 10952 10954 10958 10961 10961 10962 10963 10964 10966 10967 10967 10967 10967 10966
10839 10844 10860 10862 10867 10873 10889 10896 10908 10911 10915 10925 10925 10928 10936 10939 10940 10941 10944 10947 10951 10953 10954 10956 10957 10958 10960 10961 10961 10962 10961 10959
10828 10839 10836 10839 10850 10859 10868 10880 10889 10899 10911 10914 10915 10918 10925 10928 10932 10933 10934 10939 10942 10945 10947 10949 10950 10951 10953 10954 10954 10955 10954 10952
10813 10820 10822 10828 10841 10841 10845 10867 10876 10886 10901 10902 10904 10903 10909 10916 10919 10921 10921 10929 10933 10937 10940 10942 10943 10945 10946 10947 10947 10948 10946 10944
10799 10807 10813 10817 10819 10822 10829 10835 10855 10862 10891 10885 10881 10892 10896 10901 10906 10910 10911 10918 10925 10927 10932 10932 10934 10936 10937 10939 10940 10940 10938 10936
10785 10792 10784 10794 10804 10804 10806 10815 10839 10847 10871 10869 10862 10874 10876 10884 10895 10902 10903 10904 10913 10916 10921 10921 10923 10926 10928 10929 10931 10930 10927 10925
10768 10769 10766 10779 10786 10788 10792 10807 10811 10840 10841 10853 10848 10860 10865 10868 10880 10888 10890 10891 10902 10905 10908 10913 10914 10915 10918 10919 10921 10919 10916 10913
10746 10752 10752 10758 10764 10777 10782 10791 10799 10806 10818 10833 10842 10839 10847 10848 10860 10871 10879 10880 10888 10892 10899 10900 10905 10904 10906 10908 10908 10908 10904 10902
10729 10732 10729 10730 10768 10759 10761 10767 10776 10779 10812 10809 10812 10820 10824 10835 10839 10855 10864 10867 10874 10881 10882 10887 10892 10893 10895 10896 10897 10896 10893 10892
10708 10704 10705 10754 10728 10737 10743 10749 10757 10769 10778 10783 10794 10804 10815 10823 10830 10835 10847 10852 10859 10866 10871 10874 10876 10882 10883 10883 10883 10881 10881 10881
10680 10689 10712 10712 10720 10720 10724 10742 10746 10748 10754 10756 10770 10782 10787 10801 10810 10821 10827 10839 10842 10842 10854 10861 10865 10864 10868 10870 10870 10867 10865 10869
10666 10676 10695 10709 10697 10705 10710 10723 10719 10729 10740 10747 10753 10754 10780 10789 10794 10802 10809 10815 10823 10811 10828 10853 10848 10848 10853 10856 10856 10852 10850 10851
10652 10664 10679 10672 10682 10692 10694 10710 10711 10716 10721 10725 10736 10746 10760 10762 10767 10778 10789 10796 10801 10792 10816 10833 10831 10835 10836 10840 10843 10839 10838 10837
10638 10652 10658 10662 10680 10685 10683 10695 10696 10701 10707 10711 10719 10730 10737 10732 10745 10756 10769 10783 10786 10771 10799 10813 10813 10819 10822 10825 10828 10828 10825 10822
10624 10643 10648 10661 10661 10666 10674 10677 10681 10685 10687 10695 10707 10714 10717 10732 10735 10745 10754 10757 10765 10770 10780 10794 10800 10806 10806 10811 10812 10814 10810 10808
10603 10619 10629 10640 10645 10653 10655 10661 10666 10674 10684 10689 10693 10697 10701 10713 10713 10723 10731 10737 10739 10758 10766 10776 10783 10786 10793 10795 10797 10799 10798 10793
10605 10614 10624 10632 10639 10641 10642 10649 10653 10664 10667 10672 10682 10687 10693 10700 10704 10705 10715 10724 10737 10746 10750 10757 10765 10767 10770 10776 10780 10781 10778 10778
10591 10602 10608 10616 10622 10631 10635 10640 10646 10651 10654 10664 10672 10682 10683 10686 10689 10691 10697 10703 10715 10723 10728 10735 10742 10748 10753 10757 10761 10761 10759 10759
10578 10591 10600 10604 10610 10612 10624 10632 10634 10639 10644 10656 10665 10672 10680 10683 10674 10674 10678 10687 10695 10702 10711 10719 10726 10731 10736 10739 10741 10742 10742 10741